Weather History for Great Bend, KS

Change the Weather History Date:

Sunday, August 25, 2013

  Actual Average Record
Temperature  
Mean Temperature 84 °F -  
Max Temperature 98 °F 91 °F 106 °F (1973)
Min Temperature 71 °F 65 °F 51 °F (2010)
Cooling Degree Days 20    
Growing Degree Days 34 (Base 50)    
Moisture  
Dew Point 65 °F    
Average Humidity 55    
Maximum Humidity 83    
Minimum Humidity 30    
Precipitation  
Precipitation 0.00 in - - ()
Sea Level Pressure  
Sea Level Pressure 30.11 in    
Wind  
Wind Speed 14 mph (South)    
Max Wind Speed 21 mph    
Max Gust Speed 26 mph    
Visibility 10 miles    
Events      
Averages and records for this station are not official NWS values.
T = Trace of Precipitation, MM = Missing Value Source: NWS Daily Summary

Daily Weather History Graph

Daily Weather History Graph

Search for Another Location

Airport:

Trip Planner

Search our weather history database for the weather conditions in past years. The results will help you decide how hot, cold, wet, or windy it might be!

Date:

Astronomy

Aug. 25, 2013 Rise Set
Actual Time 6:59 AM CDT 8:15 PM CDT
Civil Twilight 6:31 AM CDT 8:42 PM CDT
Nautical Twilight 5:58 AM CDT 9:15 PM CDT
Astronomical Twilight 5:24 AM CDT 9:49 PM CDT
Moon 10:52 PM CDT (8/25) 11:57 AM CDT (8/25)
Length of Visible Light 14h 10m
Length of Day
13h 16m
Waning Gibbous, 75% of the Moon is Illuminated
Aug 25
Waning Gibbous
Aug 28
Last Quarter
Sep 5
New
Sep 12
First Quarter
Sep 19
Full

Hourly Weather History & Observations

Time (CDT) Temp. Heat Index Dew Point Humidity Pressure Visibility Wind Dir Wind Speed Gust Speed Precip Events Conditions
12:15 AM 78.8 °F - 66.2 °F 65% 30.09 in 10.0 mi SSE 13.8 mph 19.6 mph N/A   Clear
12:35 AM 78.8 °F - 66.2 °F 65% 30.09 in 10.0 mi SSE 13.8 mph - N/A   Clear
12:55 AM 77.0 °F - 66.2 °F 69% 30.10 in 10.0 mi SSE 13.8 mph - N/A   Clear
1:15 AM 78.8 °F - 66.2 °F 65% 30.10 in 10.0 mi SSE 15.0 mph 20.7 mph N/A   Clear
1:35 AM 77.0 °F - 66.2 °F 69% 30.10 in 10.0 mi SSE 13.8 mph - N/A   Clear
1:55 AM 77.0 °F - 66.2 °F 69% 30.11 in 10.0 mi South 13.8 mph 18.4 mph N/A   Clear
2:15 AM 77.0 °F - 66.2 °F 69% 30.11 in 10.0 mi South 12.7 mph - N/A   Clear
2:35 AM 75.2 °F - 66.2 °F 73% 30.12 in 10.0 mi South 13.8 mph - N/A   Clear
2:55 AM 75.2 °F - 66.2 °F 73% 30.12 in 10.0 mi South 12.7 mph - N/A   Clear
3:15 AM 75.2 °F - 66.2 °F 73% 30.12 in 10.0 mi South 13.8 mph - N/A   Clear
3:35 AM 75.2 °F - 66.2 °F 73% 30.12 in 10.0 mi South 15.0 mph - N/A   Clear
3:55 AM 75.2 °F - 66.2 °F 73% 30.12 in 10.0 mi South 13.8 mph 18.4 mph N/A   Clear
4:15 AM 75.2 °F - 66.2 °F 73% 30.12 in 10.0 mi South 15.0 mph - N/A   Clear
4:35 AM 73.4 °F - 66.2 °F 78% 30.12 in 10.0 mi South 13.8 mph - N/A   Clear
4:55 AM 73.4 °F - 66.2 °F 78% 30.12 in 10.0 mi South 12.7 mph - N/A   Clear
5:15 AM 73.4 °F - 66.2 °F 78% 30.13 in 10.0 mi South 13.8 mph - N/A   Clear
5:35 AM 73.4 °F - 66.2 °F 78% 30.13 in 10.0 mi South 12.7 mph - N/A   Clear
5:55 AM 73.4 °F - 66.2 °F 78% 30.13 in 10.0 mi South 15.0 mph - N/A   Clear
6:15 AM 73.4 °F - 66.2 °F 78% 30.13 in 10.0 mi South 11.5 mph - N/A   Clear
6:35 AM 73.4 °F - 66.2 °F 78% 30.13 in 10.0 mi South 11.5 mph - N/A   Clear
6:55 AM 71.6 °F - 66.2 °F 83% 30.14 in 10.0 mi South 12.7 mph - N/A   Clear
7:15 AM 71.6 °F - 66.2 °F 83% 30.14 in 10.0 mi South 10.4 mph 17.3 mph N/A   Clear
7:35 AM 73.4 °F - 66.2 °F 78% 30.15 in 10.0 mi South 10.4 mph - N/A   Clear
7:55 AM 73.4 °F - 66.2 °F 78% 30.15 in 10.0 mi South 12.7 mph - N/A   Clear
8:15 AM 75.2 °F - 66.2 °F 73% 30.15 in 10.0 mi South 11.5 mph - N/A   Clear
8:35 AM 77.0 °F - 66.2 °F 69% 30.15 in 10.0 mi South 13.8 mph - N/A   Clear
8:55 AM 78.8 °F - 66.2 °F 65% 30.15 in 10.0 mi South 16.1 mph - N/A   Clear
9:15 AM 80.6 °F 82.7 °F 66.2 °F 61% 30.15 in 10.0 mi South 18.4 mph 21.9 mph N/A   Clear
9:35 AM 82.4 °F 84.6 °F 66.2 °F 58% 30.14 in 10.0 mi SSW 15.0 mph - N/A   Clear
9:55 AM 84.2 °F 86.6 °F 66.2 °F 55% 30.15 in 10.0 mi South 13.8 mph - N/A   Clear
10:15 AM 86.0 °F 88.2 °F 66.2 °F 51% 30.15 in 10.0 mi SSW 15.0 mph - N/A   Clear
10:35 AM 87.8 °F 90.4 °F 66.2 °F 49% 30.15 in 10.0 mi SSW 16.1 mph 23.0 mph N/A   Clear
10:55 AM 89.6 °F 92.2 °F 66.2 °F 46% 30.15 in 10.0 mi SSW 15.0 mph 21.9 mph N/A   Clear
11:15 AM 89.6 °F 91.1 °F 64.4 °F 43% 30.14 in 10.0 mi SSW 16.1 mph 21.9 mph N/A   Clear
11:35 AM 91.4 °F 93.2 °F 64.4 °F 41% 30.15 in 10.0 mi SSW 16.1 mph - N/A   Clear
11:55 AM 91.4 °F 93.2 °F 64.4 °F 41% 30.14 in 10.0 mi SSW 18.4 mph 24.2 mph N/A   Clear
12:15 PM 91.4 °F 93.2 °F 64.4 °F 41% 30.13 in 10.0 mi SSW 17.3 mph 21.9 mph N/A   Clear
12:35 PM 93.2 °F 94.9 °F 64.4 °F 38% 30.12 in 10.0 mi SSW 17.3 mph 20.7 mph N/A   Clear
12:55 PM 93.2 °F 94.9 °F 64.4 °F 38% 30.12 in 10.0 mi SSW 13.8 mph - N/A   Clear
1:15 PM 96.8 °F 99.0 °F 64.4 °F 34% 30.12 in 10.0 mi South 17.3 mph - N/A   Clear
1:35 PM 96.8 °F 99.0 °F 64.4 °F 34% 30.11 in 10.0 mi South 17.3 mph 21.9 mph N/A   Clear
1:55 PM 96.8 °F 99.0 °F 64.4 °F 34% 30.11 in 10.0 mi SSW 15.0 mph 21.9 mph N/A   Clear
2:15 PM 96.8 °F 99.0 °F 64.4 °F 34% 30.10 in 10.0 mi South 20.7 mph 26.5 mph N/A   Clear
2:35 PM 96.8 °F 99.0 °F 64.4 °F 34% 30.10 in 10.0 mi South 13.8 mph - N/A   Clear
2:55 PM 96.8 °F 99.0 °F 64.4 °F 34% 30.10 in 9.0 mi South 15.0 mph 21.9 mph N/A   Clear
3:15 PM 98.6 °F 100.0 °F 62.6 °F 30% 30.09 in 10.0 mi South 13.8 mph 23.0 mph N/A   Clear
3:35 PM 98.6 °F 100.0 °F 62.6 °F 30% 30.08 in 10.0 mi South 15.0 mph 23.0 mph N/A   Clear
3:55 PM 96.8 °F 99.0 °F 64.4 °F 34% 30.08 in 10.0 mi South 17.3 mph 25.3 mph N/A   Clear
4:15 PM 96.8 °F 99.0 °F 64.4 °F 34% 30.08 in 10.0 mi South 16.1 mph - N/A   Clear
4:35 PM 96.8 °F 98.0 °F 62.6 °F 32% 30.08 in 10.0 mi South 16.1 mph 25.3 mph N/A   Clear
4:55 PM 96.8 °F 98.0 °F 62.6 °F 32% 30.07 in 10.0 mi South 17.3 mph 26.5 mph N/A   Clear
5:15 PM 96.8 °F 98.0 °F 62.6 °F 32% 30.07 in 10.0 mi South 15.0 mph - N/A   Clear
5:35 PM 95.0 °F 97.0 °F 64.4 °F 36% 30.07 in 10.0 mi South 18.4 mph 23.0 mph N/A   Clear
5:55 PM 95.0 °F 97.0 °F 64.4 °F 36% 30.07 in 10.0 mi South 19.6 mph 25.3 mph N/A   Clear
6:15 PM 96.8 °F 98.0 °F 62.6 °F 32% 30.07 in 10.0 mi South 18.4 mph - N/A   Clear
6:35 PM 93.2 °F 94.9 °F 64.4 °F 38% 30.07 in 10.0 mi South 15.0 mph - N/A   Clear
6:55 PM 91.4 °F 93.2 °F 64.4 °F 41% 30.07 in 10.0 mi SSE 13.8 mph - N/A   Clear
7:15 PM 89.6 °F 91.1 °F 64.4 °F 43% 30.07 in 10.0 mi South 13.8 mph - N/A   Clear
7:35 PM 89.6 °F 91.1 °F 64.4 °F 43% 30.07 in 10.0 mi South 13.8 mph - N/A   Clear
7:55 PM 87.8 °F 88.5 °F 62.6 °F 43% 30.08 in 10.0 mi SSE 10.4 mph - N/A   Clear
8:15 PM 84.2 °F 85.6 °F 64.4 °F 51% 30.08 in 10.0 mi SSE 10.4 mph - N/A   Clear
8:35 PM 84.2 °F 85.6 °F 64.4 °F 51% 30.08 in 10.0 mi SSE 11.5 mph - N/A   Clear
8:55 PM 82.4 °F 83.9 °F 64.4 °F 54% 30.09 in 10.0 mi SSE 12.7 mph - N/A   Clear
9:15 PM 82.4 °F 83.4 °F 62.6 °F 51% 30.10 in 10.0 mi SSE 12.7 mph - N/A   Clear
9:35 PM 80.6 °F 81.8 °F 62.6 °F 54% 30.10 in 10.0 mi SSE 13.8 mph - N/A   Clear
9:55 PM 80.6 °F 81.8 °F 62.6 °F 54% 30.11 in 10.0 mi SSE 12.7 mph - N/A   Clear
10:15 PM 80.6 °F 82.3 °F 64.4 °F 58% 30.12 in 10.0 mi SSE 15.0 mph - N/A   Clear
10:35 PM 80.6 °F 82.3 °F 64.4 °F 58% 30.12 in 10.0 mi SSE 15.0 mph - N/A   Clear
10:55 PM 80.6 °F 82.3 °F 64.4 °F 58% 30.13 in 10.0 mi SSE 13.8 mph 19.6 mph N/A   Clear
11:15 PM 80.6 °F 82.3 °F 64.4 °F 58% 30.13 in 10.0 mi SSE 15.0 mph - N/A   Clear
11:35 PM 78.8 °F - 64.4 °F 61% 30.13 in 10.0 mi SSE 15.0 mph 20.7 mph N/A   Clear
11:55 PM 78.8 °F - 64.4 °F 61% 30.14 in 10.0 mi South 15.0 mph 20.7 mph N/A   Clear